Tracking 23611 objects as of 18-Sep-2021
HD Live streaming from Space Station
objects crossing your sky now
Track INSPIRATION-4

STARLINK-1840

Track STARLINK-1840 now!
10-day predictions
STARLINK-1840 is classified as:


NORAD ID: 47131
Int'l Code: 2020-088K
Perigee: 445.9 km
Apogee: 456.6 km
Inclination: 53.1 °
Period: 93.5 minutes
Semi major axis: 6822 km
RCS: Unknown
Launch date: November 25, 2020
Source: United States (US)
Launch site: AIR FORCE EASTERN TEST RANGE (AFETR)
aabbcc
Your satellite tracking list
Your tracking list is empty




NASA's NSSDC Master Catalog

Two Line Element Set (TLE):
1 47131U 20088K   21260.86602877  .00021730  00000-0  53246-3 0  9995
2 47131  53.0505  45.1562 0007879 287.5184  72.4958 15.40673680 46022
Source of the keplerian elements: AFSPC